User: anonymous
Location: Vancouver
(49.2500°N, 123.1330°W)
Time: 22:00:10
(UTC-07:00)
Language:

Cosmos 1408 Rocket - Orbit

View from above orbital plane
View from above orbital plane
View from above satellite
View from above satellite

Ground track
Ground track

The orbit data is extracted from the following two-line orbital elements,

1 13553U 82092B   14209.82064563  .00000265  00000-0  29172-4 0  9637
2 13553 082.5708 136.1319 0020068 288.5375 123.6345 14.83556930720677
Epoch (UTC): 28 July 2014 19:41:43
Eccentricity: 0.0020068
inclination: 82.5708°
perigee height: 604 km
apogee height: 632 km
right ascension of ascending node: 136.1319°
argument of perigee: 288.5375°
revolutions per day: 14.83556930
mean anomaly at epoch: 123.6345°
orbit number at epoch: 72067

The dashed part of the orbit path shows where the satellite is in the earth's shadow,  

DLR